(494215) = 2016 JX6 = 2006 SV69 = 2013 SV12

Discovered at Mount Lemmon on 2006-07-22 by Mt. Lemmon Survey.

Orbit

Orbit type: Main Belt

Note: WebGL enabled browser required.

epoch2023-02-25.0
epoch JD2460000.5
perihelion date2020-05-09.50845
perihelion JD2458979.00845
argument of perihelion (°)116.10233
ascending node (°)168.87817
inclination (°)3.61987
eccentricity0.1923148
perihelion distance (AU)1.8811765
Tisserand w.r.t. Jupiter3.5
ΔV w.r.t. Earth (km/sec)8.6
semimajor axis (AU)2.3290962
mean anomaly (°)283.24189
mean daily motion (°/day)0.27728270
aphelion distance (AU)2.777
period (years)3.55
P-vector [x]0.25883598
P-vector [y]-0.90724037
P-vector [z]-0.33154012
Q-vector [x]0.96584451
Q-vector [y]0.24741974
Q-vector [z]0.07699257
absolute magnitude17.92
phase slope0.15
uncertainty0
referenceMPO 745323
observations used264
oppositions10
arc length (days)6638
first opposition used2005
last opposition used2023
residual rms (arc-secs)0.78
perturbers coarse indicatorM-v
perturbers precise indicator003Ek
first observation date used2005-03-08.0
last observation date used2023-05-11.0
computer nameMPCLINUX
Minimum Orbit Intersection Distances (in AU)
for orbit epoch: 2460000.5, reference: E2023-JB1
Mercury1.42989
Venus1.15774
Earth0.86754
Mars0.45119
Jupiter2.37687
Saturn6.29905
Uranus15.8449
Neptune27.2988

Observations

269 total observations over interval: 2005 03 08.33410 – 2023 05 11.346329
These data are available for download (format description).

Date (UT) J2000 RA J2000 Dec Magn Location Ref
2005 03 08.33410 11 09 33.64 +05 10 12.6 20.1 R G96 – Mt. Lemmon Survey MPS 708417
2005 03 08.34068 11 09 33.23 +05 10 16.8 20.5 R G96 – Mt. Lemmon Survey MPS 708417
2005 03 08.34726 11 09 32.85 +05 10 19.8 19.7 R G96 – Mt. Lemmon Survey MPS 708417
2005 03 08.35382 11 09 32.44 +05 10 23.3 20.2 R G96 – Mt. Lemmon Survey MPS 708417
2006 07 22.37998 00 47 26.84 +05 30 28.2 22.1 V G96 – Mt. Lemmon Survey MPS 708417
2006 07 22.38455 00 47 27.16 +05 30 28.0 21.3 V G96 – Mt. Lemmon Survey MPS 708417
2006 07 22.38906 00 47 27.24 +05 30 29.4 20.8 V G96 – Mt. Lemmon Survey MPS 708417
2006 07 22.39358 00 47 27.52 +05 30 29.7 21.6 V G96 – Mt. Lemmon Survey MPS 708417
2006 09 19.31730 00 43 27.37 +02 46 35.6 20.8 V 703 – Catalina Sky Survey MPS 181299
2006 09 19.33053 00 43 26.68 +02 46 28.6 20.8 V 703 – Catalina Sky Survey MPS 181299
2006 09 19.34221 00 43 26.05 +02 46 23.3   291 – LPL/Spacewatch II MPS 181299
2006 09 19.34376 00 43 25.93 +02 46 22.3 21.4 V 703 – Catalina Sky Survey MPS 181299
2006 09 19.34713 00 43 25.78 +02 46 21.1   291 – LPL/Spacewatch II MPS 181299
2006 09 19.35131 00 43 25.57 +02 46 19.3   291 – LPL/Spacewatch II MPS 181299
2006 09 19.35698 00 43 25.21 +02 46 15.8 20.2 V 703 – Catalina Sky Survey MPS 181299
2006 09 23.21526 00 40 02.97 +02 15 25.6 20.5 V 691 – Steward Observatory, Kitt Peak-Spacewatch MPS 181299
2006 09 23.22644 00 40 02.31 +02 15 20.3   291 – LPL/Spacewatch II MPS 181299
2006 09 23.23023 00 40 02.09 +02 15 18.7   291 – LPL/Spacewatch II MPS 181299
2006 09 23.23262 00 40 01.98 +02 15 17.7 20.3 V 691 – Steward Observatory, Kitt Peak-Spacewatch MPS 181299
2006 09 23.23429 00 40 01.87 +02 15 16.5   291 – LPL/Spacewatch II MPS 181299
2006 09 23.24999 00 40 00.98 +02 15 09.1 20.7 V 691 – Steward Observatory, Kitt Peak-Spacewatch MPS 181299
2006 09 24.38394 00 38 59.46 +02 05 58.6   291 – LPL/Spacewatch II MPS 181299
2006 09 24.38769 00 38 59.25 +02 05 56.8   291 – LPL/Spacewatch II MPS 181299
2006 09 24.39324 00 38 58.94 +02 05 54.1   291 – LPL/Spacewatch II MPS 181299
2006 09 25.28197 00 38 10.89 +01 58 42.0   291 – LPL/Spacewatch II MPS 181299
2006 09 25.28635 00 38 10.64 +01 58 40.0   291 – LPL/Spacewatch II MPS 181299
2006 09 25.29191 00 38 10.33 +01 58 37.4   291 – LPL/Spacewatch II MPS 181299
2006 09 26.30373 00 37 14.95 +01 50 24.6 20.8 V G96 – Mt. Lemmon Survey MPS 181299
2006 09 26.31119 00 37 14.52 +01 50 21.0 20.8 V G96 – Mt. Lemmon Survey MPS 181299
2006 09 26.31868 00 37 14.08 +01 50 17.2 20.8 V G96 – Mt. Lemmon Survey MPS 181299
2006 09 26.32628 00 37 13.62 +01 50 13.5 20.8 V G96 – Mt. Lemmon Survey MPS 181299
2006 09 27.21965 00 36 24.88 +01 43 00.0 20.3 V 691 – Steward Observatory, Kitt Peak-Spacewatch MPS 181299
2006 09 27.23709 00 36 23.89 +01 42 52.0 20.2 V 691 – Steward Observatory, Kitt Peak-Spacewatch MPS 181299
2006 09 27.25447 00 36 22.89 +01 42 43.1 20.2 V 691 – Steward Observatory, Kitt Peak-Spacewatch MPS 181299
2009 04 17.47108 16 10 42.56 -15 30 26.8   291 – LPL/Spacewatch II MPS 708417
2009 04 17.48005 16 10 42.43 -15 30 24.8   291 – LPL/Spacewatch II MPS 708417
2009 04 17.48754 16 10 42.35 -15 30 22.7   291 – LPL/Spacewatch II MPS 708417
2009 05 14.26287 15 55 24.82 -13 26 53.1 19.6 V 691 – Steward Observatory, Kitt Peak-Spacewatch MPS 708417
2009 05 14.27798 15 55 23.96 -13 26 48.9 19.7 V 691 – Steward Observatory, Kitt Peak-Spacewatch MPS 708417
2009 05 14.29308 15 55 23.13 -13 26 44.4 19.8 V 691 – Steward Observatory, Kitt Peak-Spacewatch MPS 708417
2009 05 25.19875 15 45 22.99 -12 38 49.5 19.6 V 691 – Steward Observatory, Kitt Peak-Spacewatch MPS 708417
2009 05 25.21639 15 45 21.98 -12 38 46.0 19.6 V 691 – Steward Observatory, Kitt Peak-Spacewatch MPS 708417
2009 05 25.23405 15 45 20.96 -12 38 41.7 19.6 V 691 – Steward Observatory, Kitt Peak-Spacewatch MPS 708417
2010 10 31.37727 04 36 00.15 +16 49 03.1   691 – Steward Observatory, Kitt Peak-Spacewatch MPS 708417
2010 10 31.39242 04 35 59.43 +16 48 59.7   691 – Steward Observatory, Kitt Peak-Spacewatch MPS 708417
2010 10 31.40759 04 35 58.75 +16 48 56.9   691 – Steward Observatory, Kitt Peak-Spacewatch MPS 708417
2010 11 14.21349 04 23 39.22 +16 02 58.9 21.1 R J04 – ESA Optical Ground Station, Tenerife MPS 708417
2010 11 14.21861 04 23 38.90 +16 02 58.2 21.3 R J04 – ESA Optical Ground Station, Tenerife MPS 708417
2010 11 14.22374 04 23 38.60 +16 02 57.0 21.7 R J04 – ESA Optical Ground Station, Tenerife MPS 708417
2012 01 19.48734 10 50 47.756 +05 14 26.66 22.3 w F51 – Pan-STARRS 1, Haleakala MPS 708417
2012 01 19.50140 10 50 47.495 +05 14 28.47 22.2 w F51 – Pan-STARRS 1, Haleakala MPS 708417
2012 01 19.51551 10 50 47.187 +05 14 30.50 22.3 w F51 – Pan-STARRS 1, Haleakala MPS 708417
2012 02 29.29833 10 20 10.06 +08 57 07.8 21.6 V G96 – Mt. Lemmon Survey MPS 708417
2012 02 29.30523 10 20 09.56 +08 57 10.4 21.6 V G96 – Mt. Lemmon Survey MPS 708417
2012 02 29.31216 10 20 09.16 +08 57 13.6 21.6 V G96 – Mt. Lemmon Survey MPS 708417
2012 02 29.31920 10 20 08.77 +08 57 17.3 21.0 V G96 – Mt. Lemmon Survey MPS 708417
2013 08 12.38756 23 42 16.73 -00 36 08.5 20.4 V 691 – Steward Observatory, Kitt Peak-Spacewatch MPS 708417
2013 08 12.40523 23 42 16.26 -00 36 13.1 20.4 V 691 – Steward Observatory, Kitt Peak-Spacewatch MPS 708417
2013 08 12.42290 23 42 15.83 -00 36 18.6 20.3 V 691 – Steward Observatory, Kitt Peak-Spacewatch MPS 708417
2013 08 15.50595 23 41 01.509 -00 51 38.23 20.6 w F51 – Pan-STARRS 1, Haleakala MPS 708417
2013 08 15.52151 23 41 01.038 -00 51 43.18 20.6 w F51 – Pan-STARRS 1, Haleakala MPS 708417
2013 08 15.53709 23 41 00.572 -00 51 48.15 20.6 w F51 – Pan-STARRS 1, Haleakala MPS 708417
2013 08 15.55263 23 41 00.106 -00 51 53.10 20.7 w F51 – Pan-STARRS 1, Haleakala MPS 708417
2013 09 12.37014 23 20 35.98 -04 18 07.3 20.0 V G96 – Mt. Lemmon Survey MPS 708417
2013 09 12.37454 23 20 35.75 -04 18 09.5 19.8 V G96 – Mt. Lemmon Survey MPS 708417
2013 09 12.37890 23 20 35.50 -04 18 11.8 20.0 V G96 – Mt. Lemmon Survey MPS 708417
2013 09 12.38326 23 20 35.29 -04 18 13.7 19.8 V G96 – Mt. Lemmon Survey MPS 708417
2013 09 23.28259 23 11 44.21 -05 43 12.3 19.4 V G96 – Mt. Lemmon Survey MPS 477900
2013 09 23.28788 23 11 44.00 -05 43 14.8 19.7 V G96 – Mt. Lemmon Survey MPS 477900
2013 09 23.29321 23 11 43.74 -05 43 17.2 19.6 V G96 – Mt. Lemmon Survey MPS 477900
2013 09 23.29847 23 11 43.51 -05 43 19.8 19.4 V G96 – Mt. Lemmon Survey MPS 477900
2013 10 28.18612 23 01 37.33 -07 51 28.8 20.9 V G96 – Mt. Lemmon Survey MPS 708417
2013 10 28.19364 23 01 37.43 -07 51 28.3 21.0 V G96 – Mt. Lemmon Survey MPS 708417
2013 10 28.20545 23 01 37.56 -07 51 28.0 20.7 V G96 – Mt. Lemmon Survey MPS 708417
2013 10 28.21290 23 01 37.67 -07 51 27.8 20.9 V G96 – Mt. Lemmon Survey MPS 708417
2013 11 09.06338 23 06 05.63 -07 36 06.3 20.6 V G96 – Mt. Lemmon Survey MPS 708417
2013 11 09.07051 23 06 05.89 -07 36 05.3 21.6 V G96 – Mt. Lemmon Survey MPS 708417
2013 11 09.08015 23 06 06.20 -07 36 03.7 21.9 V G96 – Mt. Lemmon Survey MPS 708417
2013 11 09.08728 23 06 06.42 -07 36 02.9 21.6 V G96 – Mt. Lemmon Survey MPS 708417
2016 03 06.51835 14 43 02.473 -12 52 44.14 21.0 w F51 – Pan-STARRS 1, Haleakala MPS 708417
2016 03 06.52995 14 43 02.723 -12 52 43.57 21.1 w F51 – Pan-STARRS 1, Haleakala MPS 708417
2016 03 06.54159 14 43 02.969 -12 52 43.04 21.1 w F51 – Pan-STARRS 1, Haleakala MPS 708417
2016 03 06.55322 14 43 03.208 -12 52 42.35 21.2 w F51 – Pan-STARRS 1, Haleakala MPS 708417
2016 04 05.47032 14 40 59.792 -11 11 35.92 20.6 w F51 – Pan-STARRS 1, Haleakala MPS 708417
2016 04 05.48260 14 40 59.366 -11 11 31.84 20.7 w F51 – Pan-STARRS 1, Haleakala MPS 708417
2016 04 05.49490 14 40 58.941 -11 11 27.68 20.6 w F51 – Pan-STARRS 1, Haleakala MPS 708417
2016 04 05.50722 14 40 58.509 -11 11 23.43 20.8 w F51 – Pan-STARRS 1, Haleakala MPS 708417
2016 04 13.36597 14 35 57.65 -10 23 51.5 19.9 V 703 – Catalina Sky Survey MPS 708417
2016 04 13.37337 14 35 57.29 -10 23 49.2 21.0 V 703 – Catalina Sky Survey MPS 708417
2016 04 13.38076 14 35 56.99 -10 23 46.2 20.4 V 703 – Catalina Sky Survey MPS 708417
2016 04 13.38817 14 35 56.61 -10 23 43.3 20.2 V 703 – Catalina Sky Survey MPS 708417
2016 04 17.45734 14 32 47.314 -09 56 58.74 19.9 r F51 – Pan-STARRS 1, Haleakala MPS 708417
2016 04 17.47014 14 32 46.636 -09 56 53.69 19.8 r F51 – Pan-STARRS 1, Haleakala MPS 708417
2016 04 17.48288 14 32 45.971 -09 56 48.38 19.9 r F51 – Pan-STARRS 1, Haleakala MPS 708417
2016 04 17.49567 14 32 45.312 -09 56 43.43 20.0 r F51 – Pan-STARRS 1, Haleakala MPS 708417
